Location: Kumla
(59.1265°N, 15.1401°E)
Time: 16:06:17
(UTC+01:00)

Vanguard 2 - Visible Passes

Search period start: 03 December 2023 00:00
Search period end: 13 December 2023 00:00
Orbit: 553 x 2922 km, 32.9° (Epoch: 02 December)

Date Brightness Start Highest point End Pass type
(mag) Time Alt. Az. Time Alt. Az. Time Alt. Az.
04 Dec 11.6 20:45:55 10° S 20:47:05 11° S 20:47:05 11° S visible
05 Dec 11.5 20:59:13 10° SSW 21:01:51 13° S 21:01:51 13° S visible
06 Dec 11.5 19:10:12 10° SSE 19:15:21 12° SSE 19:15:21 12° SSE visible
06 Dec 11.5 21:13:03 10° SSW 21:16:35 15° SSW 21:16:35 15° SSW visible
07 Dec 11.4 19:22:03 10° S 19:30:03 15° SSE 19:30:03 15° SSE visible
07 Dec 11.5 21:27:12 10° SW 21:31:17 16° SSW 21:31:17 16° SSW visible
08 Dec 11.3 19:35:05 10° S 19:44:43 18° SSE 19:44:43 18° SSE visible
08 Dec 11.5 21:41:39 10° SW 21:45:56 17° SSW 21:45:56 17° SSW visible
09 Dec 11.6 17:49:45 10° SSE 17:51:50 10° SE 17:53:55 10° SE visible
09 Dec 11.2 19:48:41 10° SSW 19:59:21 20° SSE 19:59:21 20° SSE visible
09 Dec 11.5 21:56:17 10° SW 22:00:34 17° SW 22:00:34 17° SW visible
10 Dec 11.5 17:59:34 10° SSE 18:06:24 13° SE 18:12:43 10° ESE visible
10 Dec 11.2 20:02:41 10° SSW 20:13:56 22° S 20:13:56 22° S visible
10 Dec 11.5 22:11:06 10° SW 22:15:09 16° SW 22:15:09 16° SW visible
11 Dec 11.4 18:12:03 10° S 18:21:00 16° SSE 18:27:17 13° SE visible
11 Dec 11.1 20:16:57 10° SW 20:28:30 24° S 20:28:30 24° S visible
11 Dec 11.6 22:26:06 10° WSW 22:29:43 16° SW 22:29:43 16° SW visible
12 Dec 11.3 18:25:21 10° S 18:35:38 19° SSE 18:41:49 15° SE visible
12 Dec 11.1 20:31:29 10° SW 20:43:02 25° S 20:43:02 25° S visible
12 Dec 11.6 22:41:17 10° WSW 22:44:15 14° SW 22:44:15 14° SW visible
